Flag for China Weather past 2 weeks in Tianjin, Tianjin Municipality, China

Now
73 °F

Clear.


Feels Like: 76 °F
Forecast: 56 / 78 °F
Wind: 15 mph from Southeast

Location: Tianjin / Zhangguizhu

Current Time: Mar 29, 2015 at 1:22:40 PM

Latest Report: Mar 29, 2015 at 1:00 PM


Visibility: 4 mi

Pressure: 29.98 "Hg

Humidity: 25%

Dew point: 36 °F

Location of TianjinLocation

Historic Weather in Tianjin — Graph

°F

Tianjin temperature yesterday

Maximum temperature yesterday: 73 °F (at 4:30 PM)
Minimum temperature yesterday: 54 °F (at 2:00 AM)
Average temperature yesterday: 63 °F

Past Weeks' High & Low Weather Summary

 TemperatureHumidityPressure
High73 °F (Mar 28, 4:30 PM)93% (Mar 24, 7:00 AM)30.54 "Hg (Mar 24, 7:00 AM)
Low32 °F (Mar 15, 6:30 AM)6% (Mar 21, 3:00 PM)29.80 "Hg (Mar 16, 2:30 PM)
Average53 °F40%30.16 "Hg
* Reported Mar 14 12:00 Noon — Mar 29 12:00 Noon, Tianjin, Weather by CustomWeather, © 2015

Note: Actual official high and low records may vary slightly from our data, if they occured in-between our weather recording intervals... More about our weather records

Advertising

Tianjin weather history for previous 24 hours

 ConditionsComfort  
Time TempWeatherWind HumidityBarometerVisibility
12:00 PM
Sun, Mar 29
72 °FClear.13 mph29%30.01 "Hg4 mi
11:30 AM72 °FClear.15 mph27%30.04 "Hg4 mi
11:00 AM70 °FClear.15 mph29%30.04 "Hg4 mi
10:30 AM68 °FClear.13 mph30%30.04 "Hg4 mi
10:00 AM66 °FHaze.13 mph37%30.07 "Hg3 mi
9:30 AM64 °FHaze.8 mph43%30.07 "Hg3 mi
9:00 AM63 °FHaze.8 mph49%30.07 "Hg2 mi
8:30 AM59 °FHaze.8 mph55%30.07 "Hg2 mi
8:00 AM57 °FHaze.6 mph59%30.07 "Hg1 mi
7:30 AM54 °FHaze.6 mph67%30.04 "Hg1 mi
7:00 AM52 °FHaze.6 mph72%30.07 "Hg1 mi
6:30 AM50 °FHaze.3 mph71%30.07 "Hg2 mi
6:00 AM52 °FHaze.6 mph67%30.04 "Hg2 mi
5:30 AM52 °FHaze.3 mph67%30.04 "Hg2 mi
4:30 AM54 °FHaze.3 mph63%30.04 "Hg2 mi
4:00 AM54 °FHaze.6 mph58%30.04 "Hg2 mi
3:30 AM54 °FHaze.6 mph54%30.01 "Hg2 mi
3:00 AM54 °FHaze.3 mph51%30.01 "Hg2 mi
2:30 AM57 °FHaze.3 mph44%30.01 "Hg1 mi
2:00 AM55 °FHaze.3 mph47%30.01 "Hg1 mi
1:30 AM59 °FHaze.3 mph42%30.01 "Hg1 mi
1:00 AM55 °FHaze.1 mph47%30.01 "Hg1 mi
12:30 AM59 °FHaze.1 mph39%30.04 "Hg1 mi
12:00 AM59 °FHaze.1 mph39%30.01 "Hg1 mi
11:30 PM
Sat, Mar 28
57 °FHaze.1 mph44%30.01 "Hg1 mi
11:00 PM61 °FDuststorm.1 mph36%30.01 "Hg1 mi
10:30 PM59 °FDuststorm.1 mph39%30.01 "Hg1 mi
10:00 PM61 °FDuststorm.1 mph34%29.98 "Hg1 mi
9:30 PM63 °FDuststorm.No wind32%29.98 "Hg1 mi
9:00 PM66 °FDuststorm.3 mph26%29.98 "Hg1 mi
8:30 PM64 °FDuststorm.1 mph30%29.98 "Hg1 mi
8:00 PM64 °FDuststorm.3 mph28%29.95 "Hg1 mi
7:30 PM66 °FDuststorm.3 mph30%29.95 "Hg2 mi
7:00 PM68 °FDuststorm.6 mph28%29.92 "Hg2 mi
6:30 PM68 °FDuststorm.6 mph26%29.89 "Hg2 mi
6:00 PM70 °FDuststorm.6 mph25%29.89 "Hg2 mi
5:30 PM72 °FDuststorm.8 mph22%29.89 "Hg2 mi
5:00 PM73 °FLow level haze.10 mph20%29.86 "Hg2 mi
4:30 PM73 °FLow level haze.15 mph20%29.86 "Hg2 mi
4:00 PM72 °FLow level haze.15 mph22%29.86 "Hg2 mi
3:30 PM72 °FLow level haze.15 mph22%29.86 "Hg2 mi
3:00 PM72 °FLow level haze.17 mph22%29.86 "Hg2 mi
2:30 PM72 °FLow level haze.20 mph22%29.86 "Hg2 mi
2:00 PM72 °FLow level haze.20 mph22%29.86 "Hg2 mi
1:30 PM72 °FLow level haze.22 mph20%29.86 "Hg2 mi
1:00 PM70 °FLow level haze.20 mph21%29.86 "Hg2 mi
Weather by CustomWeather, © 2015

See weather overviewHow to use our weather pages